Flag for U.S.A. Weather past 2 weeks in Winder, Georgia, U.S.A.

Now
70 °F

Low clouds.


Feels Like: 70 °F
Forecast: 69 / 82 °F
Wind: 3 mph from Southeast

Location: Winder-Barrow Airport

Current Time: May 26, 2015 at 6:47:04 AM

Latest Report: May 26, 2015 at 6:15 AM


Visibility: 10 mi

Pressure: 30.26 "Hg

Humidity: 100%

Dew point: 70 °F

Location of WinderLocation

Historic Weather in Winder — Graph

°F

Winder temperature yesterday

Maximum temperature yesterday: 82 °F (at 2:35 PM)
Minimum temperature yesterday: 63 °F (at 5:35 AM)
Average temperature yesterday: 72 °F

Past Weeks' High & Low Weather Summary

 TemperatureHumidityPressure
High91 °F (May 11, 5:15 PM)100% (May 11, 5:15 AM)30.44 "Hg (May 11, 5:15 AM)
Low54 °F (May 22, 4:35 AM)27% (May 13, 4:35 PM)29.91 "Hg (May 21, 3:15 AM)
Average74 °F71%30.21 "Hg
* Reported May 11 5:15 AM — May 26 5:55 AM, Winder, Weather by CustomWeather, © 2015

Note: Actual official high and low records may vary slightly from our data, if they occured in-between our weather recording intervals... More about our weather records

Advertising

Winder weather history for previous 24 hours

 ConditionsComfort  
Time TempWeatherWind HumidityBarometerVisibility
5:55 AM
Tue, May 26
70 °FLow clouds.3 mph100%30.25 "Hg7 mi
5:35 AM70 °FMostly cloudy.No wind100%30.25 "Hg10 mi
5:15 AM70 °FMostly cloudy.No wind100%30.25 "Hg10 mi
4:55 AM70 °FMostly cloudy.3 mph100%30.25 "Hg10 mi
4:35 AM70 °FPartly cloudy.5 mph100%30.25 "Hg10 mi
4:15 AM70 °FPassing clouds.5 mph100%30.24 "Hg10 mi
3:55 AM70 °FPassing clouds.3 mph100%30.25 "Hg10 mi
3:35 AM70 °FPartly cloudy.No wind100%30.25 "Hg10 mi
3:15 AM70 °FOvercast.No wind100%30.25 "Hg10 mi
2:55 AM70 °FLight rain. Passing clouds.3 mph100%30.26 "Hg10 mi
2:35 AM70 °FOvercast.No wind100%30.26 "Hg10 mi
2:15 AM70 °FMostly cloudy.No wind100%30.26 "Hg10 mi
1:55 AM70 °FOvercast.No wind100%30.27 "Hg10 mi
1:35 AM70 °FOvercast.No wind100%30.26 "Hg10 mi
1:15 AM70 °FOvercast.No wind100%30.27 "Hg10 mi
12:55 AM70 °FOvercast.No wind100%30.27 "Hg10 mi
12:35 AM70 °FOvercast.No wind100%30.27 "Hg10 mi
12:15 AM70 °FMostly cloudy.No wind100%30.27 "Hg10 mi
11:55 PM
Mon, May 25
70 °FMostly cloudy.No wind100%30.26 "Hg10 mi
11:35 PM70 °FOvercast.5 mph100%30.26 "Hg10 mi
11:15 PM70 °FMostly cloudy.No wind100%30.26 "Hg10 mi
10:55 PM70 °FPassing clouds.No wind100%30.26 "Hg10 mi
10:35 PM70 °FThunderstorms. Partly cloudy.No wind100%30.26 "Hg10 mi
10:15 PM70 °FThunderstorms. Partly cloudy.No wind100%30.27 "Hg4 mi
9:55 PM72 °FThundershowers. Overcast.15 mph94%30.28 "Hg4 mi
9:35 PM73 °FLight rain. Cloudy.5 mph94%30.25 "Hg7 mi
9:15 PM73 °FLight rain. Mostly cloudy.No wind94%30.25 "Hg10 mi
8:55 PM73 °FMostly cloudy.No wind94%30.25 "Hg10 mi
8:35 PM75 °FPartly sunny.No wind89%30.23 "Hg10 mi
8:15 PM75 °FScattered clouds.No wind89%30.23 "Hg10 mi
7:55 PM75 °FThundershowers. Broken clouds.No wind89%30.23 "Hg10 mi
7:35 PM77 °FPartly sunny.5 mph83%30.23 "Hg10 mi
7:15 PM77 °FThundershowers. Partly sunny.No wind83%30.24 "Hg10 mi
6:55 PM77 °FBroken clouds.No wind83%30.23 "Hg10 mi
6:35 PM77 °FCloudy.No wind79%30.24 "Hg10 mi
6:15 PM77 °FMostly cloudy.No wind83%30.25 "Hg10 mi
5:55 PM79 °FLight rain. Mostly cloudy.6 mph74%30.25 "Hg10 mi
5:15 PM82 °FMostly cloudy.3 mph62%30.24 "Hg10 mi
4:55 PM82 °FMore clouds than sun.5 mph62%30.25 "Hg10 mi
4:35 PM82 °FMore clouds than sun.No wind62%30.25 "Hg10 mi
4:15 PM82 °FCloudy.3 mph62%30.25 "Hg10 mi
3:55 PM82 °FCloudy.No wind62%30.25 "Hg10 mi
3:35 PM82 °FMore clouds than sun.5 mph62%30.26 "Hg10 mi
3:15 PM82 °FMore clouds than sun.3 mph62%30.27 "Hg10 mi
2:55 PM81 °FCloudy.5 mph66%30.27 "Hg10 mi
2:35 PM82 °FMore clouds than sun.No wind58%30.28 "Hg10 mi
2:15 PM81 °FMore clouds than sun.6 mph66%30.29 "Hg10 mi
1:55 PM81 °FCloudy.9 mph66%30.29 "Hg10 mi
1:35 PM81 °FBroken clouds.5 mph66%30.30 "Hg10 mi
1:15 PM81 °FCloudy.3 mph66%30.31 "Hg10 mi
12:55 PM79 °FCloudy.5 mph70%30.32 "Hg10 mi
12:35 PM79 °FMostly cloudy.6 mph70%30.32 "Hg10 mi
12:15 PM77 °FMostly cloudy.3 mph74%30.32 "Hg10 mi
11:55 AM79 °FPartly sunny.6 mph70%30.32 "Hg10 mi
11:35 AM77 °FBroken clouds.No wind74%30.33 "Hg10 mi
11:15 AM77 °FMostly cloudy.No wind74%30.34 "Hg10 mi
10:55 AM77 °FPartly sunny.5 mph74%30.34 "Hg10 mi
10:35 AM73 °FMostly cloudy.5 mph83%30.35 "Hg10 mi
10:15 AM73 °FOvercast.3 mph78%30.35 "Hg10 mi
9:55 AM72 °FOvercast.No wind83%30.35 "Hg10 mi
9:35 AM72 °FOvercast.3 mph78%30.35 "Hg10 mi
9:15 AM70 °FOvercast.No wind83%30.35 "Hg10 mi
8:55 AM68 °FOvercast.No wind88%30.35 "Hg10 mi
8:35 AM66 °FMostly cloudy.No wind88%30.34 "Hg10 mi
8:15 AM64 °FBroken clouds.No wind94%30.33 "Hg10 mi
7:55 AM63 °FPartly sunny.No wind100%30.33 "Hg10 mi
7:35 AM63 °FMostly cloudy.No wind100%30.32 "Hg10 mi
7:15 AM63 °FPassing clouds.No wind100%30.33 "Hg10 mi
6:55 AM63 °FPassing clouds.No wind94%30.32 "Hg10 mi
6:35 AM63 °FPassing clouds.No wind94%30.32 "Hg10 mi
6:15 AM63 °FMostly cloudy.No wind100%30.32 "Hg10 mi
Weather by CustomWeather, © 2015

See weather overviewHow to use our weather pages